Погода в Хисарёню

Турция     40°21′24″N   43°28′41″E
темп.,
°C
ветер,
м/с
пор.,
м/с
влажн.,
%
обл.,
%
осадки,
мм/ч
давл.,
гПа
погр.,
м
9 мая, вс
вс900:00+12сз11665 0.0 101411
03:00+10ссз11685 0.0 101310
06:00+12зсз11669 0.0 101312
09:00+17юв33475 0.0 1011714
12:00+21юв463751 0.0 10081654
15:00+23ююз1114293 0.0 10023257
18:00+14сз101260100 0.4 1007821
21:00+8сз4768100 8.1 1013609
10 мая, пн
пн1000:00+6сз61064100 0.6 1015656
03:00+4сз71157100 0.8 10171029
06:00+3сз610512 0.1 1020771
09:00+7сз35330 0.1 10181345
12:00+11зсз242834 0.0 10151734
15:00+13юз242696 0.0 10131922
18:00+11с54362 0.0 1012846
21:00+5ссз46480 0.0 1017251
11 мая, вт
вт1100:00+4сз46560 0.0 1017199
03:00+3сз34580 0.0 1017104
06:00+3сз23550 0.0 1018152
09:00+8всв11482 0.0 1015812
12:00+13вюв32410 0.0 10131173
15:00+15вюв44380 0.0 10111114
18:00+14вюв44430 0.0 1011680
21:00+10ссв11580 0.0 101310
12 мая, ср
ср1200:00+9ссз22590 0.0 101426
03:00+7ссз22650 0.0 101525
06:00+9сз22610 0.0 101630
09:00+15юв22380 0.0 1015660
12:00+19юв35280 0.0 10141762
15:00+21юв46243 0.0 10122533
18:00+19юв45340 0.0 1012195
21:00+13ссз11470 0.0 101411
13 мая, чт
чт1300:00+12сз11455 0.0 101411
03:00+11сз22460 0.0 101514
06:00+13сз22500 0.0 101621
09:00+18вюв11340 0.0 1015635
12:00+22юв24255 0.0 10132869
15:00+24юв352118 0.0 10123340
18:00+21ссв353597 0.1 1013153
21:00+15сз4452100 0.3 101759